NOAA 16 DEB

基本信息
目录编号:
42338
目录名称:
NOAA 16 DEB
国际标识:
2000-055QE
轨道中心:
EARTH
物体状态:
已陨落(2024-11-26)
发射日期:
2000-09-21 UTC
轨道信息
数据来源: 国际轨道数据
星历时间: 2024-11-20T00:21:56+0800
半长轴: 6784.929km
偏心率: 0.0029944
轨道倾角: 98.679°
近地点辐角: 300.018°
升交点赤经: 107.764°
平近点角: 59.810°
近地点: 386.477km
远地点: 427.111km
周期: 92.700分钟
每日圈数: 15.534057
详细信息
发射场:
AFWTR
轨道高度:
LEO
数据来源:
AOE Integration Group
参考系:
TEME
时间系统:
UTC
历元类型:
SGP4
2D轨道图
3D轨道图
轨道高度分析图
轨道倾角分析图
轨道综合分析图
查看轨道综合分析图